Tracking 19644 objects as of 24-Apr-2019
HD Live streaming from Space Station
objects crossing your sky now

CZ-4 DEB


CZ-4 DEB is no longer on orbit


NORAD ID: 26230
Int'l Code: 1999-057DU
Perigee: N/A
Apogee: N/A
Inclination: N/A
Period: N/A
Semi major axis: N/A
RCS: N/A
Launch date: October 14, 1999
Source: People's Republic of China (PRC)
Launch site: Taiyaun Space Center, China (TSC)
Decay date: 2014-06-30

Note: This is SATELLITE DEBRIS
aabbcc
Your satellite tracking list
Your tracking list is empty




NASA's NSSDC Master Catalog

Two Line Element Set (TLE):
1 26230U 99057DU  14181.35222651  .33238641  33518-5  45196-2 0  9996
2 26230 098.6961 228.9689 0014061 255.6439 104.3292 16.34997187781848
Source of the keplerian elements: AFSPC